FW4092 Weather Reports


time (UTC)temp
F
wind
direction
speed
knots
gust
knots
rain 1hr
in
rain 24hr
in
rain mn
in
humidity
%
barometer
mb
20260901085517 61 281 0.0 2.6 0.00 0.00 0.00 46 1007.3
20260901085240 61 284 0.0 1.7 0.00 0.00 0.00 46 1007.3
20260901084738 61 284 0.0 2.6 0.00 0.00 0.00 45 1007.2
20260901084018 61 284 0.0 2.6 0.00 0.00 0.00 45 1007.3
20260901083514 61 285 0.0 2.6 0.00 0.00 0.00 44 1007.4
20260901083243 61 298 0.0 1.7 0.00 0.00 0.00 45 1007.4
20260901082509 61 298 0.0 1.7 0.00 0.00 0.00 45 1007.3
20260901082002 61 298 0.0 1.7 0.00 0.00 0.00 44 1007.3
20260901081456 61 298 0.0 1.7 0.00 0.00 0.00 44 1007.4
20260901080949 61 298 0.0 1.7 0.00 0.00 0.00 43 1007.3
20260901080444 61 298 0.9 1.7 0.00 0.00 0.00 42 1007.3
20260901075938 61 299 0.9 1.7 0.00 0.00 0.00 41 1007.3
20260901075433 61 301 0.9 1.7 0.00 0.00 0.00 41 1007.3
20260901074926 61 301 0.9 1.7 0.00 0.00 0.00 40 1007.3
20260901074912 61 301 0.9 1.7 0.00 0.00 0.00 39 1007.3
20260901073915 61 301 0.0 0.9 0.00 0.00 0.00 39 1007.4
20260901073636 61 301 0.0 0.9 0.00 0.00 0.00 39 1007.4
20260901072902 61 301 0.0 1.7 0.00 0.00 0.00 39 1007.4
20260901072356 61 301 0.0 1.7 0.00 0.00 0.00 39 1007.5
20260901071850 62 302 0.0 0.9 0.00 0.00 0.00 38 1007.5
20260901071344 62 302 0.0 0.9 0.00 0.00 0.00 38 1007.4
20260901070839 62 302 0.0 1.7 0.00 0.00 0.00 38 1007.4
20260901070550 63 302 0.9 1.7 0.00 0.00 0.00 37 1007.4
20260901065827 64 302 0.9 2.6 0.00 0.00 0.00 36 1007.3
20260901065816 64 302 0.9 3.5 0.00 0.00 0.00 36 1007.3
20260901064816 65 300 1.7 3.5 0.00 0.00 0.00 36 1007.3
20260901064310 65 302 1.7 2.6 0.00 0.00 0.00 35 1007.3
20260901063804 65 297 0.9 2.6 0.00 0.00 0.00 35 1007.5
20260901063257 65 296 0.9 3.5 0.00 0.00 0.00 35 1007.5
20260901062752 65 296 1.7 2.6 0.00 0.00 0.00 35 1007.5
20260901062246 65 296 0.9 3.5 0.00 0.00 0.00 35 1007.7
20260901061740 65 285 0.9 3.5 0.00 0.00 0.00 35 1007.7
20260901061235 65 284 0.9 3.5 0.00 0.00 0.00 35 1007.8
20260901060727 65 282 0.9 3.5 0.00 0.00 0.00 35 1007.8
20260901060222 66 285 1.7 4.3 0.00 0.00 0.00 35 1007.7
20260901055716 66 288 1.7 4.3 0.00 0.00 0.00 35 1007.7
20260901055210 66 297 1.7 3.5 0.00 0.00 0.00 35 1007.7
20260901054704 66 298 1.7 3.5 0.00 0.00 0.00 34 1007.8
20260901054430 66 298 1.7 4.3 0.00 0.00 0.00 34 1007.7
20260901053930 66 288 1.7 4.3 0.00 0.00 0.00 34 1007.8
20260901053202 66 298 1.7 3.5 0.00 0.00 0.00 34 1007.7
20260901052702 67 296 1.7 3.5 0.00 0.00 0.00 34 1007.8
20260901052205 67 298 1.7 3.5 0.00 0.00 0.00 34 1007.8
20260901052140 67 295 1.7 3.5 0.00 0.00 0.00 34 1007.8
20260901050700 69 319 0.9 5.2 0.00 0.00 0.00 34 1007.7
20260901050201 69 329 1.7 5.2 0.00 0.00 0.00 34 1007.8
20260901045701 69 355 1.7 5.2 0.00 0.00 0.00 33 1007.8
20260901045200 70 327 2.6 7.8 0.00 0.00 0.00 33 1007.7
20260901044909 70 355 2.6 7.8 0.00 0.00 0.00 33 1007.7
20260901043701 70 313 2.6 7.0 0.00 0.00 0.00 32 1007.7
20260901043423 71 350 1.7 5.2 0.00 0.00 0.00 32 1007.7
20260901042659 71 343 1.7 5.2 0.00 0.00 0.00 32 1007.7
20260901042203 71 345 1.7 5.2 0.00 0.00 0.00 32 1007.5
20260901041659 72 0 2.6 9.6 0.00 0.00 0.00 31 1007.5
20260901041159 72 355 3.5 9.6 0.00 0.00 0.00 31 1007.4
20260901040700 72 346 3.5 9.6 0.00 0.00 0.00 31 1007.2
20260901040159 72 317 3.5 8.7 0.00 0.00 0.00 31 1007.2
20260901040150 72 355 3.5 8.7 0.00 0.00 0.00 31 1007.1
20260901035158 73 343 4.3 10.4 0.00 0.00 0.00 30 1007.0
20260901034656 73 347 4.3 10.4 0.00 0.00 0.00 31 1007.0
20260901034427 73 338 3.5 9.6 0.00 0.00 0.00 30 1007.0
20260901033655 73 344 3.5 8.7 0.00 0.00 0.00 30 1006.9
20260901033153 73 355 3.5 8.7 0.00 0.00 0.00 30 1006.9
20260901032654 74 53 2.6 8.7 0.00 0.00 0.00 30 1006.8
20260901032154 74 341 3.5 9.6 0.00 0.00 0.00 29 1006.7
20260901031656 74 0 3.5 9.6 0.00 0.00 0.00 29 1006.7
20260901031151 74 355 3.5 9.6 0.00 0.00 0.00 29 1006.6
20260901030651 75 351 3.5 9.6 0.00 0.00 0.00 29 1006.6
20260901030151 75 336 4.3 10.4 0.00 0.00 0.00 29 1006.6
20260901025652 75 328 3.5 10.4 0.00 0.00 0.00 29 1006.5
20260901025152 76 331 3.5 10.4 0.00 0.00 0.00 28 1006.6
20260901025142 76 355 3.5 10.4 0.00 0.00 0.00 28 1006.4
20260901024145 76 23 3.5 9.6 0.00 0.00 0.00 27 1006.2
20260901023638 77 337 3.5 12.2 0.00 0.00 0.00 27 1006.2
20260901023133 78 355 3.5 12.2 0.00 0.00 0.00 26 1006.1
20260901022855 78 350 3.5 12.2 0.00 0.00 0.00 26 1006.0
20260901022124 79 331 4.3 12.2 0.00 0.00 0.00 26 1005.9
20260901021615 79 342 4.3 12.2 0.00 0.00 0.00 25 1006.0
20260901021109 80 0 5.2 12.2 0.00 0.00 0.00 25 1005.9
20260901021058 80 12 5.2 12.2 0.00 0.00 0.00 24 1005.8
20260901020330 80 19 6.1 13.0 0.00 0.00 0.00 24 1005.8
20260901015815 81 0 6.1 13.0 0.00 0.00 0.00 23 1005.8
20260901015045 81 337 5.2 10.4 0.00 0.00 0.00 23 1005.8
20260901014812 82 0 5.2 12.2 0.00 0.00 0.00 23 1005.8
20260901014033 82 30 5.2 11.3 0.00 0.00 0.00 22 1005.7
20260901013532 83 5 4.3 12.2 0.00 0.00 0.00 22 1005.6
20260901013022 83 46 3.5 13.0 0.00 0.00 0.00 21 1005.6
20260901012514 84 40 4.3 13.0 0.00 0.00 0.00 21 1005.7
20260901012009 84 335 4.3 11.3 0.00 0.00 0.00 20 1005.7
20260901011503 85 50 3.5 8.7 0.00 0.00 0.00 20 1005.8
20260901010957 85 338 3.5 11.3 0.00 0.00 0.00 20 1005.6
20260901010451 85 34 3.5 11.3 0.00 0.00 0.00 20 1005.6
20260901005945 85 310 5.2 12.2 0.00 0.00 0.00 20 1005.7
20260901005439 84 355 6.1 12.2 0.00 0.00 0.00 19 1005.7
20260901004933 85 0 6.1 12.2 0.00 0.00 0.00 19 1005.8
20260901004427 85 5 5.2 12.2 0.00 0.00 0.00 19 1005.8
20260901003923 85 5 5.2 15.6 0.00 0.00 0.00 20 1006.0
20260901003415 85 345 5.2 15.6 0.00 0.00 0.00 19 1006.0
20260901003135 85 319 6.1 13.0 0.00 0.00 0.00 19 1005.9
20260901002404 85 355 6.1 12.2 0.00 0.00 0.00 20 1005.9
20260901001904 85 17 5.2 11.3 0.00 0.00 0.00 19 1005.8
20260901001401 85 347 6.1 13.0 0.00 0.00 0.00 20 1005.9
20260901000859 85 346 6.1 13.0 0.00 0.00 0.00 20 1005.9
20260901000624 84 305 5.2 12.2 0.00 0.00 0.00 20 1006.0
20260831235857 84 324 6.1 12.2 0.00 0.00 0.00 20 1005.9
20260831235357 83 336 6.1 12.2 0.00 0.00 0.00 20 1006.0
20260831234858 83 346 6.1 12.2 0.00 0.00 0.00 20 1006.0
20260831234357 84 5 5.2 11.3 0.00 0.00 0.00 20 1006.0
20260831233857 85 350 4.3 12.2 0.00 0.00 0.00 19 1006.1
20260831233617 85 346 5.2 12.2 0.00 0.00 0.00 19 1006.2
20260831232857 85 333 5.2 11.3 0.00 0.00 0.00 20 1006.1
20260831232357 86 313 4.3 11.3 0.00 0.00 0.00 19 1006.1
20260831232123 85 20 5.2 10.4 0.00 0.00 0.00 19 1006.2
20260831231357 86 330 5.2 11.3 0.00 0.00 0.00 19 1006.2
20260831230856 86 55 4.3 11.3 0.00 0.00 0.00 20 1006.4
20260831230357 86 336 3.5 8.7 0.00 0.00 0.00 19 1006.4
20260831225857 86 28 2.6 8.7 0.00 0.00 0.00 20 1006.5
20260831225624 86 39 3.5 10.4 0.00 0.00 0.00 19 1006.5
20260831224857 85 50 3.5 10.4 0.00 0.00 0.00 20 1006.6
20260831224357 85 21 3.5 8.7 0.00 0.00 0.00 20 1006.6
20260831223856 85 324 3.5 9.6 0.00 0.00 0.00 21 1006.6
20260831223356 85 40 3.5 10.4 0.00 0.00 0.00 20 1006.8
20260831222856 85 341 3.5 10.4 0.00 0.00 0.00 20 1006.9
20260831222357 85 9 2.6 7.8 0.00 0.00 0.00 20 1007.0
20260831221857 84 35 3.5 8.7 0.00 0.00 0.00 21 1007.0
20260831221356 83 350 3.5 9.6 0.00 0.00 0.00 21 1007.0
20260831220857 83 0 4.3 9.6 0.00 0.00 0.00 21 1007.2
20260831220357 83 23 4.3 10.4 0.00 0.00 0.00 22 1007.2
20260831220124 83 355 3.5 10.4 0.00 0.00 0.00 21 1007.4
20260831215356 83 5 2.6 7.8 0.00 0.00 0.00 22 1007.4
20260831214859 83 22 3.5 10.4 0.00 0.00 0.00 23 1007.7
20260831214357 83 355 3.5 10.4 0.00 0.00 0.00 22 1007.7
20260831213856 82 5 3.5 8.7 0.00 0.00 0.00 23 1007.8
20260831213356 82 324 4.3 8.7 0.00 0.00 0.00 22 1007.7
20260831212857 82 54 4.3 9.6 0.00 0.00 0.00 22 1007.9
20260831212356 82 0 3.5 9.6 0.00 0.00 0.00 22 1008.0
20260831211849 82 59 2.6 7.8 0.00 0.00 0.00 22 1008.0
20260831211341 81 44 2.6 7.8 0.00 0.00 0.00 23 1008.1
20260831210836 81 355 3.5 12.2 0.00 0.00 0.00 23 1008.1
20260831210551 80 31 4.3 12.2 0.00 0.00 0.00 24 1008.1
20260831210048 80 330 4.3 10.4 0.00 0.00 0.00 23 1008.2
20260831205318 80 13 4.3 10.4 0.00 0.00 0.00 24 1008.3
20260831204812 80 34 3.5 8.7 0.00 0.00 0.00 25 1008.4
20260831204531 80 350 3.5 8.7 0.00 0.00 0.00 25 1008.5
20260831203801 80 28 4.3 9.6 0.00 0.00 0.00 25 1008.5
20260831203255 80 15 3.5 9.6 0.00 0.00 0.00 25 1008.5
20260831202748 80 19 3.5 9.6 0.00 0.00 0.00 26 1008.5
20260831202242 79 340 2.6 7.8 0.00 0.00 0.00 26 1008.7
20260831202008 78 5 1.7 7.0 0.00 0.00 0.00 26 1008.7
20260831201230 78 42 2.6 7.0 0.00 0.00 0.00 27 1009.0
20260831200729 78 45 2.6 7.0 0.00 0.00 0.00 27 1009.2
20260831200218 78 348 2.6 7.0 0.00 0.00 0.00 27 1009.3
20260831195712 77 311 2.6 6.1 0.00 0.00 0.00 28 1009.4
20260831195206 76 29 2.6 7.0 0.00 0.00 0.00 29 1009.5
20260831194924 76 349 2.6 7.0 0.00 0.00 0.00 28 1009.6
20260831194154 76 13 1.7 7.0 0.00 0.00 0.00 29 1009.7
20260831193911 76 25 1.7 6.1 0.00 0.00 0.00 29 1009.7
20260831193141 75 11 2.6 7.0 0.00 0.00 0.00 28 1009.8
20260831192636 75 36 2.6 7.0 0.00 0.00 0.00 29 1009.8
20260831192130 75 51 1.7 7.0 0.00 0.00 0.00 30 1009.9
20260831192119 75 15 1.7 7.0 0.00 0.00 0.00 29 1009.9
20260831191118 75 17 1.7 7.0 0.00 0.00 0.00 30 1010.1
20260831190612 74 34 1.7 4.3 0.00 0.00 0.00 28 1010.1
20260831190106 74 0 2.6 7.0 0.00 0.00 0.00 30 1010.3
20260831185600 73 311 2.6 7.0 0.00 0.00 0.00 30 1010.4
20260831185054 73 349 2.6 6.1 0.00 0.00 0.00 30 1010.5
20260831184548 73 257 2.6 6.1 0.00 0.00 0.00 30 1010.6
20260831184042 72 296 2.6 6.1 0.00 0.00 0.00 32 1010.6
20260831183535 72 265 2.6 5.2 0.00 0.00 0.00 30 1010.7
20260831183030 72 304 2.6 4.3 0.00 0.00 0.00 32 1010.8
20260831182524 71 342 1.7 4.3 0.00 0.00 0.00 33 1010.8
20260831182018 71 0 1.7 5.2 0.00 0.00 0.00 33 1010.9
20260831181512 70 344 1.7 5.2 0.00 0.00 0.00 34 1010.9
20260831181458 70 0 1.7 5.2 0.00 0.00 0.00 33 1011.0
20260831180500 69 55 0.9 3.5 0.00 0.00 0.00 35 1011.1
20260831175953 69 56 0.9 3.5 0.00 0.00 0.00 36 1011.3
20260831175448 68 322 1.7 4.3 0.00 0.00 0.00 36 1011.3
20260831174947 68 351 1.7 4.3 0.00 0.00 0.00 36 1011.3
20260831174716 67 346 1.7 4.3 0.00 0.00 0.00 38 1011.3
20260831174211 66 355 1.7 3.5 0.00 0.00 0.00 41 1011.4
20260831173714 66 322 0.9 3.5 0.00 0.00 0.00 41 1011.5
20260831172946 65 323 1.7 3.5 0.00 0.00 0.00 41 1011.5
20260831172755 65 288 0.9 3.5 0.00 0.00 0.00 41 1011.6
20260831172253 65 258 0.9 4.3 0.00 0.00 0.00 42 1011.7
20260831171446 65 261 0.9 4.3 0.00 0.00 0.00 42 1011.7
20260831171436 64 279 0.9 3.5 0.00 0.00 0.00 43 1011.7
20260831170446 64 157 0.9 3.5 0.00 0.00 0.00 43 1011.8
20260831165946 64 159 0.9 3.5 0.00 0.00 0.00 43 1011.8
20260831165505 63 143 0.0 1.7 0.00 0.00 0.00 43 1011.8
20260831165501 63 161 0.0 1.7 0.00 0.00 0.00 43 1011.8
20260831164446 62 139 0.0 1.7 0.00 0.00 0.00 42 1011.9
20260831163946 61 139 0.9 3.5 0.00 0.00 0.00 43 1012.0
20260831163445 60 139 0.9 3.5 0.00 0.00 0.00 44 1012.0
20260831162943 60 140 0.9 3.5 0.00 0.00 0.00 44 1012.0
20260831162445 60 149 0.9 2.6 0.00 0.00 0.00 44 1012.1
20260831161943 59 129 0.9 2.6 0.00 0.00 0.00 45 1012.1
20260831161437 58 146 0.9 2.6 0.00 0.00 0.00 46 1012.1
20260831160954 57 148 0.9 2.6 0.00 0.00 0.00 46 1012.1
20260831155938 56 146 0.9 3.5 0.00 0.00 0.00 47 1012.2
20260831155443 56 146 0.9 3.5 0.00 0.00 0.00 48 1012.3
20260831154938 55 148 0.0 4.3 0.00 0.00 0.00 50 1012.2
20260831154435 54 148 0.9 4.3 0.00 0.00 0.00 50 1012.2
20260831154206 53 147 0.9 4.3 0.00 0.00 0.00 52 1012.2
20260831153431 52 147 0.9 4.3 0.00 0.00 0.00 52 1012.2
20260831153216 51 148 0.9 2.6 0.00 0.00 0.00 54 1012.2
20260831153204 52 149 0.9 2.6 0.00 0.00 0.00 53 1012.2
20260831152213 50 148 0.9 4.3 0.00 0.00 0.00 55 1012.2
20260831151431 49 148 1.7 4.3 0.00 0.00 0.00 57 1012.1
20260831150929 48 149 1.7 4.3 0.00 0.00 0.00 58 1012.2
20260831150429 47 148 1.7 4.3 0.00 0.00 0.00 59 1012.2
20260831150216 47 146 2.6 7.0 0.00 0.00 0.00 60 1012.1
20260831150212 46 138 2.6 7.0 0.00 0.00 0.00 61 1012.2
20260831145224 46 141 1.7 5.2 0.00 0.00 0.00 62 1012.2
20260831144154 45 144 1.7 6.1 0.00 0.00 0.00 62 1012.1
20260831143417 44 140 2.6 4.3 0.00 0.00 0.00 63 1012.0
20260831142912 44 141 2.6 6.1 0.00 0.00 0.00 63 1012.0
20260831142404 44 142 2.6 6.1 0.00 0.00 0.00 63 1012.0
20260831141901 43 155 1.7 5.2 0.00 0.00 0.00 63 1012.0
20260831141400 43 159 0.9 4.3 0.00 0.00 0.00 65 1011.9
20260831140900 43 147 0.9 4.3 0.00 0.00 0.00 66 1012.0
20260831140400 42 148 1.7 4.3 0.00 0.00 0.00 66 1012.0
20260831135859 42 150 1.7 4.3 0.00 0.00 0.00 66 1012.0
20260831135359 42 151 2.6 6.1 0.00 0.00 0.00 65 1012.0
20260831135132 43 140 2.6 6.1 0.00 0.00 0.00 65 1012.0
20260831134400 43 138 1.7 4.3 0.00 0.00 0.00 64 1012.1
20260831133900 44 143 2.6 4.3 0.00 0.00 0.00 63 1012.1
20260831133357 44 151 1.7 4.3 0.00 0.00 0.00 63 1012.0
20260831133128 44 149 1.7 5.2 0.00 0.00 0.00 62 1011.9
20260831132400 44 150 1.7 5.2 0.00 0.00 0.00 61 1011.9
20260831131902 44 148 1.7 3.5 0.00 0.00 0.00 61 1011.9
20260831131358 44 144 1.7 3.5 0.00 0.00 0.00 62 1012.0
20260831130857 44 148 0.9 2.6 0.00 0.00 0.00 62 1012.0
20260831130358 44 144 0.0 2.6 0.00 0.00 0.00 63 1012.0
20260831125857 44 143 0.9 2.6 0.00 0.00 0.00 63 1012.0
20260831125354 43 143 1.7 2.6 0.00 0.00 0.00 63 1012.0
20260831125116 43 143 0.9 2.6 0.00 0.00 0.00 63 1012.1
20260831124848 43 143 0.9 2.6 0.00 0.00 0.00 63 1012.1
20260831124339 44 143 0.9 2.6 0.00 0.00 0.00 62 1012.1
20260831123833 44 143 1.7 4.3 0.00 0.00 0.00 62 1012.1
20260831123331 44 143 1.7 4.3 0.00 0.00 0.00 62 1012.2
20260831122831 44 141 1.7 3.5 0.00 0.00 0.00 62 1012.2
20260831122329 44 144 1.7 6.1 0.00 0.00 0.00 62 1012.2
20260831122110 45 144 2.6 6.1 0.00 0.00 0.00 61 1012.3
20260831121332 45 138 2.6 4.3 0.00 0.00 0.00 62 1012.4
20260831121110 45 142 2.6 4.3 0.00 0.00 0.00 63 1012.3
20260831120330 45 140 2.6 4.3 0.00 0.00 0.00 63 1012.3
20260831115829 46 136 1.7 4.3 0.00 0.00 0.00 62 1012.3
20260831115329 46 166 1.7 4.3 0.00 0.00 0.00 61 1012.4
20260831114829 46 208 0.9 2.6 0.00 0.00 0.00 60 1012.4
20260831114330 46 217 0.9 2.6 0.00 0.00 0.00 60 1012.4
20260831113829 46 225 0.0 2.6 0.00 0.00 0.00 59 1012.3
20260831113330 47 226 0.0 1.7 0.00 0.00 0.00 58 1012.4
20260831112823 47 226 0.0 1.7 0.00 0.00 0.00 57 1012.4
20260831112310 47 227 0.0 1.7 0.00 0.00 0.00 56 1012.4
20260831112140 48 227 0.0 1.7 0.00 0.00 0.00 54 1012.6
20260831111309 49 242 0.0 1.7 0.00 0.00 0.00 52 1012.7
20260831110551 49 248 0.0 0.0 0.00 0.00 0.00 53 1012.7
20260831105809 49 248 0.0 0.9 0.00 0.00 0.00 53 1012.7
20260831105544 49 248 0.0 0.9 0.00 0.00 0.00 53 1012.7
20260831104808 49 248 0.0 0.9 0.00 0.00 0.00 53 1012.6
20260831104309 49 265 0.0 0.9 0.00 0.00 0.00 54 1012.6
20260831103808 49 265 0.0 0.9 0.00 0.00 0.00 54 1012.6
20260831103310 49 272 0.0 0.9 0.00 0.00 0.00 55 1012.6
20260831102807 48 274 0.0 0.0 0.00 0.00 0.00 55 1012.6
20260831102306 48 274 0.0 0.0 0.00 0.00 0.00 55 1012.6
20260831101804 49 275 0.0 0.0 0.00 0.00 0.00 54 1012.6
20260831101538 49 275 0.0 1.7 0.00 0.00 0.00 53 1012.6
20260831101049 49 275 0.0 1.7 0.00 0.00 0.00 53 1012.6
20260831100303 49 294 0.0 0.9 0.00 0.00 0.00 53 1012.6
20260831095803 49 294 0.0 0.0 0.00 0.00 0.00 53 1012.7
20260831095311 49 294 0.0 0.0 0.00 0.00 0.00 53 1012.7
20260831094807 49 294 0.0 0.0 0.00 0.00 0.00 54 1012.7
20260831094301 50 294 0.0 0.0 0.00 0.00 0.00 54 1012.7
20260831093759 51 294 0.0 0.0 0.00 0.00 0.00 56 1012.7
20260831093256 51 294 0.0 0.0 0.00 0.00 0.00 55 1012.7
20260831092757 52 294 0.0 0.0 0.00 0.00 0.00 55 1012.8
20260831092255 53 294 0.0 0.0 0.00 0.00 0.00 54 1012.8
20260831091811 54 294 0.0 0.0 0.00 0.00 0.00 55 1012.9
20260831091804 53 294 0.0 0.0 0.00 0.00 0.00 54 1012.8
20260831090742 54 294 0.0 0.0 0.00 0.00 0.00 54 1013.0
20260831090236 54 294 0.0 0.0 0.00 0.00 0.00 54 1012.9